This demonstration page uses our WeatherBlox Daily Observations layout. Learn more.

Left ArrowRight Arrow

Hourly Observations for July 12, 2015

Temp ( °F °C ) Dew Point ( °F °C ) Humidity (%) Winds ( mph kmh ) Pressure ( in mb ) Visibility ( mi km ) Precip ( " mm )
12:53 am 00:53 Mostly Clear 80 26.7 51 10.6 37 37 SSW 10 17 29.88 1012 10 16 0.00 0.00
1:53 am 01:53 Mostly Cloudy 78 25.6 51 10.6 39 39 S 7 11 29.88 1012 10 16 0.00 0.00
2:53 am 02:53 Mostly Clear 76 24.4 51 10.6 42 42 SSW 8 13 29.88 1012 10 16 0.00 0.00
3:53 am 03:53 Clear 74 23.3 52 11.1 46 46 S 6 9 29.90 1013 10 16 0.00 0.00
4:53 am 04:53 Clear 73 22.8 51 10.6 46 46 S 9 15 29.92 1013 10 16 0.00 0.00
5:53 am 05:53 Sunny 71 21.7 53 11.7 53 53 S 5 7 29.94 1014 10 16 0.00 0.00
6:53 am 06:53 Sunny 70 21.1 53 11.7 55 55 SW 5 7 29.96 1015 10 16 0.00 0.00
7:53 am 07:53 Sunny 70 21.1 52 11.1 53 53 SW 5 7 29.97 1015 10 16 0.00 0.00
8:53 am 08:53 Sunny 73 22.8 52 11.1 48 48 VRB 3 6 29.98 1015 10 16 0.00 0.00
9:53 am 09:53 Sunny 76 24.4 53 11.7 45 45 Calm 29.98 1015 10 16 0.00 0.00
10:53 am 10:53 Sunny 78 25.6 52 11.1 40 40 Calm 29.97 1015 10 16 0.00 0.00
11:53 am 11:53 Sunny 82 27.8 51 10.6 34 34 VRB 5 7 29.96 1015 10 16 0.00 0.00
12:53 pm 12:53 Sunny 85 29.4 50 10 30 30 S 8 13 29.95 1014 10 16 0.00 0.00
1:53 pm 13:53 Sunny 85 29.4 48 8.9 28 28 S 8 13 29.94 1014 10 16 0.00 0.00
2:53 pm 14:53 Sunny 89 31.7 46 7.8 23 23 S 13 20 29.93 1014 10 16 0.00 0.00
3:53 pm 15:53 Sunny 87 30.6 46 7.8 24 24 SSW 10 17 29.93 1014 10 16 0.00 0.00
4:53 pm 16:53 Sunny 87 30.6 50 10 28 28 W 9 15 29.91 1013 10 16 0.00 0.00
5:53 pm 17:53 Sunny 84 28.9 52 11.1 33 33 W 7 11 29.90 1013 10 16 0.00 0.00
6:53 pm 18:53 Sunny 87 30.6 50 10 28 28 WNW 6 9 29.90 1013 10 16 0.00 0.00
7:53 pm 19:53 Sunny 86 30 50 10 29 29 Calm 29.90 1013 10 16 0.00 0.00
8:53 pm 20:53 Clear 84 28.9 50 10 31 31 ESE 3 6 29.91 1013 10 16 0.00 0.00
9:53 pm 21:53 Clear 80 26.7 51 10.6 37 37 Calm 29.92 1013 10 16 0.00 0.00
10:53 pm 22:53 Mostly Clear 76 24.4 52 11.1 43 43 NW 6 9 29.93 1014 10 16 0.00 0.00
11:53 pm 23:53 Clear 75 23.9 53 11.7 46 46 N 3 6 29.94 1014 10 16 0.00 0.00

Powered by AerisWeather